Location: *
(43.4667°N, 11.6833°E)
Time: 12:27:37
(UTC+00:00)

Cosmos 1302 Rocket - Pass Details

Date: 19 July 2019
Orbit: 757 x 775 km, 74.0° (Epoch: 20 August)

Event Time Altitude Azimuth Distance (km) Brightness Sun altitude
Rises 19:12:15 0° 337° (NNW) 3,236 8.3 -4.4°
Reaches altitude 10° 19:14:39 10° 335° (NNW) 2,303 7.6 -4.7°
Maximum altitude 19:19:50 70° 253° (WSW) 807 4.3 -5.5°
Drops below altitude 10° 19:24:59 10° 170° (S) 2,279 6.0 -6.2°
Sets 19:27:20 0° 168° (SSE) 3,199 6.8 -6.6°
